,,,PA_Meas_PMT16A,,PR_Meas_QMR101_102,,RH_Meas_QMH101,,SR_Meas_QMS101,,TA_Meas_QMH101,,GenWind,,GenWind,
date,time,status,PA,status,PR,status,RH,status,SR,status,TA,status,DirAvg,status,SpdAvg,
2010-08-05, 00:00:04,VALID,1003.3,VALID,0,VALID,104,VALID,0,VALID,25.3779,VALID,87,VALID,0.0664063,
2010-08-05, 00:01:04,VALID,1003.31,VALID,0,INVALID,109.223,VALID,0,VALID,25.339,VALID,87,VALID,0.146094,
2010-08-05, 00:02:04,VALID,1003.3,VALID,0,INVALID,110.68,VALID,0,VALID,25.2981,VALID,87,VALID,0.335156,
2010-08-05, 00:03:04,VALID,1003.3,VALID,0,INVALID,111.191,VALID,0,VALID,25.2592,VALID,37,VALID,0.729297,
2010-08-05, 00:04:04,VALID,1003.31,VALID,0,INVALID,112.038,VALID,0,VALID,25.2611,VALID,23,VALID,0.4625,
2010-08-05, 00:05:04,VALID,1003.32,VALID,0,INVALID,112.312,VALID,0,VALID,25.2416,VALID,23,VALID,0.00117188,
2010-08-05, 00:06:04,VALID,1003.32,VALID,0,INVALID,112.259,VALID,0,VALID,25.1832,VALID,23,VALID,0.426953,
2010-08-05, 00:07:04,VALID,1003.33,VALID,0,INVALID,112.396,VALID,0,VALID,25.1248,VALID,23,VALID,0.416016,
2010-08-05, 00:08:04,VALID,1003.32,VALID,0,INVALID,112.595,VALID,0,VALID,25.1072,VALID,23,VALID,0.471484,
2010-08-05, 00:09:04,VALID,1003.31,VALID,0,INVALID,112.717,VALID,0,VALID,25.0469,VALID,23,VALID,0.414844,
2010-08-05, 00:10:04,VALID,1003.31,VALID,0,INVALID,112.839,VALID,0,VALID,24.9866,VALID,23,VALID,0.596875,
2010-08-05, 00:11:04,VALID,1003.32,VALID,0,INVALID,112.946,VALID,0,VALID,24.969,VALID,16,VALID,0.654297,
2010-08-05, 00:12:04,VALID,1003.29,VALID,0,INVALID,113.274,VALID,0,VALID,24.9885,VALID,360,VALID,0.7625,
2010-08-05, 00:13:04,VALID,1003.29,VALID,0,INVALID,113.388,VALID,0,VALID,25.0469,VALID,22,VALID,0.941406,
2010-08-05, 00:14:04,VALID,1003.32,VALID,0,INVALID,113.342,VALID,0,VALID,25.0663,VALID,11,VALID,0.792188,
2010-08-05, 00:15:04,VALID,1003.31,VALID,0,INVALID,113.373,VALID,0,VALID,25.1442,VALID,14,VALID,0.517187,
2010-08-05, 00:16:04,VALID,1003.32,VALID,0,INVALID,113.274,VALID,0,VALID,25.1442,VALID,14,VALID,0.527734,
2010-08-05, 00:17:04,VALID,1003.35,VALID,0,INVALID,113.113,VALID,0,VALID,25.1248,VALID,9,VALID,0.641797,
2010-08-05, 00:18:04,VALID,1003.34,VALID,0,INVALID,113.068,VALID,0,VALID,25.1053,VALID,14,VALID,0.802344,
2010-08-05, 00:19:04,VALID,1003.34,VALID,0,INVALID,113.312,VALID,0,VALID,25.2416,VALID,22,VALID,0.707031,
2010-08-05, 00:20:04,VALID,1003.32,VALID,0,INVALID,113.091,VALID,0,VALID,25.3,VALID,22,VALID,0.483984,
2010-08-05, 00:21:04,VALID,1003.33,VALID,0,INVALID,112.709,VALID,0,VALID,25.2806,VALID,22,VALID,0.417969,
2010-08-05, 00:22:04,VALID,1003.34,VALID,0,INVALID,112.862,VALID,0,VALID,25.3214,VALID,1,VALID,0.728906,
2010-08-05, 00:23:04,VALID,1003.33,VALID,0,INVALID,112.808,VALID,0,VALID,25.3195,VALID,1,VALID,0.560547,
2010-08-05, 00:24:04,VALID,1003.31,VALID,0,INVALID,112.396,VALID,0,VALID,25.3019,VALID,360,VALID,0.503125,
2010-08-05, 00:25:04,VALID,1003.3,VALID,0,INVALID,112.541,VALID,0,VALID,25.3409,VALID,33,VALID,0.8875,
2010-08-05, 00:26:04,VALID,1003.32,VALID,0,INVALID,112.686,VALID,0,VALID,25.3584,VALID,17,VALID,0.621094,
2010-08-05, 00:27:04,VALID,1003.26,VALID,0,INVALID,112.541,VALID,0,VALID,25.3779,VALID,23,VALID,0.303906,
2010-08-05, 00:28:04,VALID,1003.28,VALID,0,INVALID,112.343,VALID,0,VALID,25.3974,VALID,25,VALID,0.386719,
2010-08-05, 00:29:04,VALID,1003.27,VALID,0,INVALID,112.282,VALID,0,VALID,25.3974,VALID,25,VALID,0.315234,
2010-08-05, 00:30:04,VALID,1003.27,VALID,0,INVALID,111.809,VALID,0,VALID,25.3779,VALID,26,VALID,0.412109,
2010-08-05, 00:31:04,VALID,1003.25,VALID,0,INVALID,110.665,VALID,0,VALID,25.3195,VALID,25,VALID,0.438672,
2010-08-05, 00:32:04,VALID,1003.23,VALID,0,INVALID,111.87,VALID,0,VALID,25.3,VALID,25,VALID,0.469141,
2010-08-05, 00:33:04,VALID,1003.19,VALID,0,INVALID,111.855,VALID,0,VALID,25.2416,VALID,9,VALID,0.70625,
2010-08-05, 00:34:04,VALID,1003.2,VALID,0,INVALID,112.648,VALID,0,VALID,25.2416,VALID,355,VALID,0.351172,
2010-08-05, 00:35:04,VALID,1003.22,VALID,0,INVALID,112.511,VALID,0,VALID,25.2027,VALID,354,VALID,0.58125,
2010-08-05, 00:36:04,VALID,1003.2,VALID,0,INVALID,112.579,VALID,0,VALID,25.1637,VALID,357,VALID,0.471875,
2010-08-05, 00:37:04,VALID,1003.17,VALID,0,INVALID,112.633,VALID,0,VALID,25.1248,VALID,357,VALID,0.367969,
2010-08-05, 00:38:04,VALID,1003.16,VALID,0,INVALID,112.816,VALID,0,VALID,25.1072,VALID,6,VALID,0.630078,
2010-08-05, 00:39:04,VALID,1003.17,VALID,0,INVALID,113.037,VALID,0,VALID,25.0644,VALID,32,VALID,0.714844,
2010-08-05, 00:40:04,VALID,1003.18,VALID,0,INVALID,113.274,VALID,0,VALID,25.1442,VALID,22,VALID,0.751953,
2010-08-05, 00:41:04,VALID,1003.15,VALID,0,INVALID,113.304,VALID,0,VALID,25.1832,VALID,20,VALID,0.753125,
2010-08-05, 00:42:04,VALID,1003.12,VALID,0,INVALID,113.396,VALID,0,VALID,25.2592,VALID,24,VALID,0.407813,
2010-08-05, 00:43:04,VALID,1003.1,VALID,0,INVALID,113.304,VALID,0,VALID,25.3584,VALID,2,VALID,0.696875,
2010-08-05, 00:44:04,VALID,1003.09,VALID,0,INVALID,113.091,VALID,0,VALID,25.4753,VALID,28,VALID,0.440625,
2010-08-05, 00:45:04,VALID,1003.1,VALID,0,INVALID,112.564,VALID,0,VALID,25.4734,VALID,27,VALID,0.662891,
2010-08-05, 00:46:04,VALID,1003.07,VALID,0,INVALID,110.977,VALID,0,VALID,25.4753,VALID,6,VALID,0.76875,
2010-08-05, 00:47:04,VALID,1003.05,VALID,0,INVALID,109.825,VALID,0,VALID,25.4363,VALID,355,VALID,0.902344,
2010-08-05, 00:48:04,VALID,1003.07,VALID,0,INVALID,111.481,VALID,0,VALID,25.4149,VALID,351,VALID,0.911328,
2010-08-05, 00:49:04,VALID,1003.07,VALID,0,INVALID,110.413,VALID,0,VALID,25.4169,VALID,354,VALID,0.766406,
2010-08-05, 00:50:04,VALID,1003.07,VALID,0,INVALID,110.283,VALID,0,VALID,25.3779,VALID,354,VALID,0.458203,
2010-08-05, 00:51:04,VALID,1003.05,VALID,0,INVALID,111.168,VALID,0,VALID,25.3584,VALID,352,VALID,1.10352,
2010-08-05, 00:52:04,VALID,1003.05,VALID,0,INVALID,111.969,VALID,0,VALID,25.337,VALID,350,VALID,0.543359,
2010-08-05, 00:53:04,VALID,1003.06,VALID,0,INVALID,112.495,VALID,0,VALID,25.3584,VALID,356,VALID,0.876562,
2010-08-05, 00:54:04,VALID,1003.06,VALID,0,INVALID,112.45,VALID,0,VALID,25.3974,VALID,360,VALID,0.455469,
2010-08-05, 00:55:04,VALID,1003.05,VALID,0,INVALID,111.984,VALID,0,VALID,25.3974,VALID,23,VALID,0.522656,
2010-08-05, 00:56:04,VALID,1003.03,VALID,0,INVALID,111.641,VALID,0,VALID,25.376,VALID,23,VALID,0.542188,
2010-08-05, 00:57:04,VALID,1003.03,VALID,0,INVALID,112.137,VALID,0,VALID,25.376,VALID,8,VALID,1.09727,
2010-08-05, 00:58:04,VALID,1003.02,VALID,0,INVALID,112.145,VALID,0,VALID,25.3974,VALID,360,VALID,0.766406,
2010-08-05, 00:59:04,VALID,1002.99,VALID,0,INVALID,112.03,VALID,0,VALID,25.3974,VALID,360,VALID,0.579687,
2010-08-05, 01:00:04,VALID,1003.02,VALID,0,INVALID,111.908,VALID,0,VALID,25.3565,VALID,360,VALID,0.583203,
2010-08-05, 01:01:04,VALID,1003.03,VALID,0,INVALID,112.16,VALID,0,VALID,25.337,VALID,360,VALID,0.527734,
2010-08-05, 01:02:04,VALID,1003.01,VALID,0,INVALID,112.572,VALID,0,VALID,25.3779,VALID,16,VALID,1.00625,
2010-08-05, 01:03:04,VALID,1003.02,VALID,0,INVALID,112.633,VALID,0,VALID,25.3955,VALID,5,VALID,0.60625,
2010-08-05, 01:04:04,VALID,1003.01,VALID,0,INVALID,112.389,VALID,0,VALID,25.4558,VALID,5,VALID,0.244531,
2010-08-05, 01:05:04,VALID,1003.02,VALID,0,INVALID,111.969,VALID,0,VALID,25.4344,VALID,5,VALID,0.638281,
2010-08-05, 01:06:04,VALID,1003.03,VALID,0,INVALID,111.649,VALID,0,VALID,25.4558,VALID,5,VALID,0.628125,
2010-08-05, 01:07:04,VALID,1003.03,VALID,0,INVALID,111.611,VALID,0,VALID,25.4363,VALID,8,VALID,0.757813,
2010-08-05, 01:08:04,VALID,1002.99,VALID,0,INVALID,111.824,VALID,0,VALID,25.3955,VALID,352,VALID,0.810547,
2010-08-05, 01:09:04,VALID,1003.01,VALID,0,INVALID,111.572,VALID,0,VALID,25.4149,VALID,2,VALID,0.742969,
2010-08-05, 01:10:04,VALID,1003.02,VALID,0,INVALID,111.656,VALID,0,VALID,25.4344,VALID,10,VALID,0.515625,
2010-08-05, 01:11:04,VALID,1003.03,VALID,0,INVALID,111.496,VALID,0,VALID,25.4149,VALID,10,VALID,0.515625,
2010-08-05, 01:12:04,VALID,1003.04,VALID,0,INVALID,111.221,VALID,0,VALID,25.3955,VALID,8,VALID,0.798828,
2010-08-05, 01:13:04,VALID,1003.02,VALID,0,INVALID,111.496,VALID,0,VALID,25.3974,VALID,12,VALID,0.475,
2010-08-05, 01:14:04,VALID,1003.04,VALID,0,INVALID,111.786,VALID,0,VALID,25.337,VALID,12,VALID,0.338672,
2010-08-05, 01:15:04,VALID,1003.04,VALID,0,INVALID,112.251,VALID,0,VALID,25.2981,VALID,49,VALID,0.397656,
2010-08-05, 01:16:04,VALID,1003.02,VALID,0,INVALID,112.488,VALID,0,VALID,25.2786,VALID,48,VALID,0.591406,
2010-08-05, 01:17:04,VALID,1003,VALID,0,INVALID,112.625,VALID,0,VALID,25.3,VALID,21,VALID,0.796484,
2010-08-05, 01:18:04,VALID,1003.01,VALID,0,INVALID,112.762,VALID,0,VALID,25.2786,VALID,19,VALID,0.630469,
2010-08-05, 01:19:04,VALID,1003.01,VALID,0,INVALID,112.862,VALID,0,VALID,25.337,VALID,36,VALID,0.709375,
2010-08-05, 01:20:04,VALID,1003.03,VALID,0,INVALID,112.701,VALID,0,VALID,25.3955,VALID,8,VALID,0.782812,
2010-08-05, 01:21:04,VALID,1003.02,VALID,0,INVALID,112.465,VALID,0,VALID,25.4928,VALID,15,VALID,0.825391,
2010-08-05, 01:22:04,VALID,1003,VALID,0,INVALID,111.351,VALID,0,VALID,25.5727,VALID,18,VALID,0.704297,
2010-08-05, 01:23:04,VALID,1002.98,VALID,0,VALID,104,VALID,0,VALID,25.6311,VALID,4,VALID,0.794141,
2010-08-05, 01:24:04,VALID,1002.96,VALID,0,VALID,99.1754,VALID,0,VALID,25.6292,VALID,11,VALID,0.727344,
2010-08-05, 01:25:04,VALID,1002.93,VALID,0,VALID,97.0165,VALID,0.100563,VALID,25.6856,VALID,25,VALID,1.17109,
2010-08-05, 01:26:04,VALID,1002.92,VALID,0,VALID,93.0342,VALID,0.100563,VALID,25.7655,VALID,23,VALID,0.702344,
2010-08-05, 01:27:04,VALID,1002.9,VALID,0,VALID,91.8288,VALID,0.100563,VALID,25.746,VALID,30,VALID,0.551562,
2010-08-05, 01:28:04,VALID,1002.91,VALID,0,VALID,92.0272,VALID,0.100563,VALID,25.746,VALID,18,VALID,0.597656,
2010-08-05, 01:29:04,VALID,1002.91,VALID,0,VALID,92.3934,VALID,0.100563,VALID,25.785,VALID,15,VALID,0.727344,
2010-08-05, 01:30:04,VALID,1002.92,VALID,0,VALID,91.1575,VALID,0.100563,VALID,25.8609,VALID,57,VALID,0.720312,
2010-08-05, 01:31:04,VALID,1002.9,VALID,0,VALID,89.5936,VALID,0,VALID,25.9408,VALID,47,VALID,0.619531,
2010-08-05, 01:32:04,VALID,1002.89,VALID,0,VALID,88.6323,VALID,0.100563,VALID,25.9797,VALID,28,VALID,0.852734,
2010-08-05, 01:33:04,VALID,1002.88,VALID,0,VALID,88.1365,VALID,0,VALID,25.9777,VALID,26,VALID,0.677344,
2010-08-05, 01:34:04,VALID,1002.88,VALID,0,VALID,87.9762,VALID,0,VALID,25.9583,VALID,29,VALID,0.471484,
2010-08-05, 01:35:04,VALID,1002.85,VALID,0,VALID,87.8847,VALID,0,VALID,25.9992,VALID,57,VALID,0.463672,
2010-08-05, 01:36:04,VALID,1002.81,VALID,0,VALID,87.7703,VALID,0.100563,VALID,25.9583,VALID,24,VALID,0.476563,
2010-08-05, 01:37:04,VALID,1002.83,VALID,0,VALID,87.9305,VALID,0,VALID,25.9602,VALID,29,VALID,0.995313,
2010-08-05, 01:38:04,VALID,1002.81,VALID,0,VALID,87.8771,VALID,0.100563,VALID,25.9602,VALID,27,VALID,0.499219,
2010-08-05, 01:39:04,VALID,1002.81,VALID,0,VALID,87.7398,VALID,0.100563,VALID,25.9777,VALID,19,VALID,0.776953,
2010-08-05, 01:40:04,VALID,1002.82,VALID,0,VALID,87.3507,VALID,0,VALID,26.0012,VALID,8,VALID,0.644531,
2010-08-05, 01:41:04,VALID,1002.82,VALID,0,VALID,87.6177,VALID,0,VALID,25.9427,VALID,12,VALID,0.998047,
2010-08-05, 01:42:04,VALID,1002.81,VALID,0,VALID,87.8313,VALID,0,VALID,25.8843,VALID,9,VALID,0.588281,
2010-08-05, 01:43:04,VALID,1002.81,VALID,0,VALID,88.1593,VALID,0,VALID,25.8648,VALID,3,VALID,0.656641,
2010-08-05, 01:44:04,VALID,1002.8,VALID,0,VALID,88.3882,VALID,0,VALID,25.8648,VALID,7,VALID,0.857813,
2010-08-05, 01:45:04,VALID,1002.8,VALID,0,VALID,88.762,VALID,0,VALID,25.8648,VALID,22,VALID,1.09375,
2010-08-05, 01:46:04,VALID,1002.77,VALID,0,VALID,88.4187,VALID,0,VALID,25.9038,VALID,8,VALID,1.12344,
2010-08-05, 01:47:04,VALID,1002.75,VALID,0,VALID,88.0754,VALID,0,VALID,25.9602,VALID,39,VALID,0.603125,
2010-08-05, 01:48:04,VALID,1002.75,VALID,0,VALID,87.7092,VALID,0,VALID,25.9817,VALID,44,VALID,0.655469,
2010-08-05, 01:49:04,VALID,1002.69,VALID,0,VALID,87.7474,VALID,0,VALID,25.9622,VALID,7,VALID,0.901172,
2010-08-05, 01:50:04,VALID,1002.65,VALID,0,VALID,87.7779,VALID,0,VALID,25.9817,VALID,355,VALID,1.55,
2010-08-05, 01:51:04,VALID,1002.66,VALID,0,VALID,87.2973,VALID,0,VALID,26.0791,VALID,25,VALID,1.73789,
2010-08-05, 01:52:04,VALID,1002.63,VALID,0,VALID,86.9616,VALID,0,VALID,26.118,VALID,16,VALID,0.892187,
2010-08-05, 01:53:04,VALID,1002.62,VALID,0,VALID,86.7556,VALID,0,VALID,26.159,VALID,26,VALID,1.08906,
2010-08-05, 01:54:04,VALID,1002.58,VALID,0,VALID,86.5725,VALID,0,VALID,26.1784,VALID,30,VALID,0.827734,
2010-08-05, 01:55:04,VALID,1002.61,VALID,0,VALID,86.5115,VALID,0,VALID,26.1745,VALID,26,VALID,0.703906,
2010-08-05, 01:56:04,VALID,1002.58,VALID,0,VALID,86.5344,VALID,0.100563,VALID,26.155,VALID,10,VALID,0.711328,
2010-08-05, 01:57:04,VALID,1002.57,VALID,0,VALID,86.5496,VALID,0,VALID,26.155,VALID,50,VALID,0.918359,
2010-08-05, 01:58:04,VALID,1002.58,VALID,0,VALID,86.4123,VALID,0.100563,VALID,26.1745,VALID,47,VALID,0.664453,
2010-08-05, 01:59:04,VALID,1002.58,VALID,0,VALID,86.3513,VALID,0,VALID,26.155,VALID,46,VALID,0.424219,
2010-08-05, 02:00:04,VALID,1002.63,VALID,0,VALID,86.4962,VALID,0,VALID,26.1375,VALID,27,VALID,0.610156,
2010-08-05, 02:01:04,VALID,1002.59,VALID,0,VALID,86.6793,VALID,0.100563,VALID,26.0771,VALID,30,VALID,0.316406,
2010-08-05, 02:02:04,VALID,1002.63,VALID,0,VALID,86.954,VALID,0,VALID,26.0381,VALID,20,VALID,0.702344,
2010-08-05, 02:03:04,VALID,1002.64,VALID,0,VALID,87.0608,VALID,0.100563,VALID,26.0771,VALID,88,VALID,0.536328,
2010-08-05, 02:04:04,VALID,1002.6,VALID,0,VALID,87.0226,VALID,0,VALID,26.0576,VALID,335,VALID,0.762891,
2010-08-05, 02:05:04,VALID,1002.63,VALID,0,VALID,86.9158,VALID,0.100563,VALID,26.118,VALID,86,VALID,0.620313,
2010-08-05, 02:06:04,VALID,1002.64,VALID,0,VALID,86.8472,VALID,0,VALID,26.0966,VALID,32,VALID,0.841016,
2010-08-05, 02:07:04,VALID,1002.61,VALID,0,VALID,86.6336,VALID,0.100563,VALID,26.155,VALID,49,VALID,0.823828,
2010-08-05, 02:08:04,VALID,1002.63,VALID,0,VALID,86.3818,VALID,0,VALID,26.194,VALID,12,VALID,0.747656,
2010-08-05, 02:09:04,VALID,1002.66,VALID,0,VALID,86.1682,VALID,0.100563,VALID,26.2739,VALID,85,VALID,0.839844,
2010-08-05, 02:10:04,VALID,1002.69,VALID,0,VALID,86.0309,VALID,0,VALID,26.2739,VALID,55,VALID,0.498828,
2010-08-05, 02:11:04,VALID,1002.66,VALID,0,VALID,85.9165,VALID,0,VALID,26.2719,VALID,72,VALID,0.736719,
2010-08-05, 02:12:04,VALID,1002.71,VALID,0,VALID,85.8325,VALID,0.100563,VALID,26.2933,VALID,92,VALID,0.629297,
2010-08-05, 02:13:04,VALID,1002.64,VALID,0,VALID,85.7562,VALID,0,VALID,26.2719,VALID,77,VALID,0.48125,
2010-08-05, 02:14:04,VALID,1002.71,VALID,0,VALID,85.802,VALID,0,VALID,26.2524,VALID,42,VALID,0.303906,
2010-08-05, 02:15:04,VALID,1002.73,VALID,0,VALID,85.7486,VALID,0.100563,VALID,26.2719,VALID,91,VALID,1.04023,
2010-08-05, 02:16:04,VALID,1002.78,VALID,0,VALID,85.6342,VALID,0,VALID,26.3108,VALID,102,VALID,0.54375,
2010-08-05, 02:17:04,VALID,1002.74,VALID,0,VALID,85.5274,VALID,0,VALID,26.3108,VALID,37,VALID,0.424609,
2010-08-05, 02:18:04,VALID,1002.77,VALID,0,VALID,85.6266,VALID,0,VALID,26.2504,VALID,105,VALID,0.826563,
2010-08-05, 02:19:04,VALID,1002.78,VALID,0,VALID,85.7486,VALID,0,VALID,26.2524,VALID,103,VALID,0.220313,
2010-08-05, 02:20:04,VALID,1002.82,VALID,0,VALID,85.8936,VALID,0.100563,VALID,26.2329,VALID,115,VALID,0.304297,
2010-08-05, 02:21:04,VALID,1002.79,VALID,0,VALID,85.9927,VALID,0,VALID,26.192,VALID,115,VALID,0.129297,
2010-08-05, 02:22:04,VALID,1002.81,VALID,0,VALID,86.1453,VALID,0,VALID,26.1745,VALID,98,VALID,0.979297,
2010-08-05, 02:23:04,VALID,1002.83,VALID,0,VALID,86.2826,VALID,0.100563,VALID,26.1745,VALID,73,VALID,0.526172,
2010-08-05, 02:24:04,VALID,1002.82,VALID,0,VALID,86.42,VALID,0,VALID,26.1355,VALID,25,VALID,0.241797,
2010-08-05, 02:25:04,VALID,1002.79,VALID,0,VALID,86.5191,VALID,0.100563,VALID,26.116,VALID,25,VALID,0.223828,
2010-08-05, 02:26:04,VALID,1002.8,VALID,0,VALID,86.6717,VALID,0,VALID,26.0985,VALID,76,VALID,0.526563,
2010-08-05, 02:27:04,VALID,1002.77,VALID,0,VALID,86.9158,VALID,0,VALID,26.0381,VALID,31,VALID,0.865625,
2010-08-05, 02:28:04,VALID,1002.75,VALID,0,VALID,86.8853,VALID,0.100563,VALID,25.9602,VALID,31,VALID,0.410547,
2010-08-05, 02:29:04,VALID,1002.71,VALID,0,VALID,87.2591,VALID,0.100563,VALID,25.9232,VALID,21,VALID,0.878906,
2010-08-05, 02:30:04,VALID,1002.71,VALID,0,VALID,87.7092,VALID,0.100563,VALID,25.8629,VALID,6,VALID,0.869141,
2010-08-05, 02:31:04,VALID,1002.68,VALID,0,VALID,87.8542,VALID,0,VALID,25.8434,VALID,12,VALID,0.976953,
2010-08-05, 02:32:04,VALID,1002.71,VALID,0,VALID,88.1212,VALID,0.100563,VALID,25.8434,VALID,25,VALID,1.11211,
2010-08-05, 02:33:04,VALID,1002.7,VALID,0,VALID,88.0907,VALID,0,VALID,25.8239,VALID,55,VALID,0.490625,
2010-08-05, 02:34:04,VALID,1002.68,VALID,0,VALID,88.4264,VALID,0.100563,VALID,25.785,VALID,51,VALID,0.294922,
2010-08-05, 02:35:04,VALID,1002.74,VALID,0,VALID,88.7849,VALID,0.100563,VALID,25.7265,VALID,46,VALID,0.359375,
2010-08-05, 02:36:04,VALID,1002.72,VALID,0,VALID,89.6927,VALID,0,VALID,25.6876,VALID,9,VALID,0.821094,
2010-08-05, 02:37:04,VALID,1002.72,VALID,0,VALID,90.6921,VALID,0.100563,VALID,25.785,VALID,86,VALID,0.674219,
2010-08-05, 02:38:04,VALID,1002.73,VALID,0,VALID,89.9674,VALID,0.100563,VALID,25.8434,VALID,2,VALID,0.599609,
2010-08-05, 02:39:04,VALID,1002.74,VALID,0,VALID,89.6927,VALID,0,VALID,25.8629,VALID,8,VALID,0.971484,
2010-08-05, 02:40:04,VALID,1002.74,VALID,0,VALID,89.2808,VALID,0,VALID,25.9038,VALID,19,VALID,0.346484,
2010-08-05, 02:41:04,VALID,1002.7,VALID,0,VALID,88.9604,VALID,0,VALID,25.9038,VALID,19,VALID,0,
2010-08-05, 02:42:04,VALID,1002.72,VALID,0,VALID,88.9222,VALID,0,VALID,25.9018,VALID,19,VALID,0,
2010-08-05, 02:43:04,VALID,1002.68,VALID,0,VALID,88.9604,VALID,0,VALID,25.9018,VALID,15,VALID,0.512109,
2010-08-05, 02:44:04,VALID,1002.73,VALID,0,VALID,88.7849,VALID,0,VALID,25.9213,VALID,351,VALID,0.545703,
2010-08-05, 02:45:04,VALID,1002.72,VALID,0,VALID,88.5408,VALID,0,VALID,25.9018,VALID,356,VALID,0.657812,
2010-08-05, 02:46:04,VALID,1002.71,VALID,0,VALID,88.4721,VALID,0,VALID,25.8823,VALID,354,VALID,0.725,
2010-08-05, 02:47:04,VALID,1002.74,VALID,0,VALID,89.0214,VALID,0.100563,VALID,25.8629,VALID,356,VALID,0.780078,
2010-08-05, 02:48:04,VALID,1002.7,VALID,0,VALID,88.8002,VALID,0,VALID,25.8239,VALID,19,VALID,0.566016,
2010-08-05, 02:49:04,VALID,1002.75,VALID,0,VALID,89.1511,VALID,0,VALID,25.785,VALID,353,VALID,0.755469,
2010-08-05, 02:50:04,VALID,1002.74,VALID,0,VALID,89.2732,VALID,0,VALID,25.7869,VALID,354,VALID,0.362109,
2010-08-05, 02:51:04,VALID,1002.71,VALID,0,VALID,89.5325,VALID,0,VALID,25.748,VALID,354,VALID,0.240234,
2010-08-05, 02:52:04,VALID,1002.71,VALID,0,VALID,90.3565,VALID,0,VALID,25.6876,VALID,354,VALID,0.400781,
2010-08-05, 02:53:04,VALID,1002.68,VALID,0,VALID,90.5548,VALID,0,VALID,25.6876,VALID,354,VALID,0.277344,
2010-08-05, 02:54:04,VALID,1002.69,VALID,0,VALID,91.3101,VALID,0,VALID,25.7071,VALID,354,VALID,0.219141,
2010-08-05, 02:55:04,VALID,1002.72,VALID,0,VALID,90.9973,VALID,0,VALID,25.7265,VALID,354,VALID,0.141406,
2010-08-05, 02:56:04,VALID,1002.71,VALID,0,VALID,90.6158,VALID,0,VALID,25.7071,VALID,354,VALID,0.223828,
2010-08-05, 02:57:04,VALID,1002.7,VALID,0,VALID,90.6769,VALID,0,VALID,25.7071,VALID,354,VALID,0.319531,
2010-08-05, 02:58:04,VALID,1002.74,VALID,0,VALID,91.0888,VALID,0,VALID,25.7285,VALID,27,VALID,0.829297,
2010-08-05, 02:59:04,VALID,1002.74,VALID,0,VALID,90.9744,VALID,0,VALID,25.7071,VALID,14,VALID,0.518359,
2010-08-05, 03:00:04,VALID,1002.71,VALID,0,VALID,90.7532,VALID,0,VALID,25.6681,VALID,14,VALID,0.246875,
2010-08-05, 03:01:04,VALID,1002.72,VALID,0,VALID,90.8676,VALID,0,VALID,25.6311,VALID,14,VALID,0.210938,
2010-08-05, 03:02:04,VALID,1002.7,VALID,0,VALID,92.0501,VALID,0,VALID,25.5493,VALID,346,VALID,0.727344,
2010-08-05, 03:03:04,VALID,1002.67,VALID,0,VALID,98.4583,VALID,0,VALID,25.5493,VALID,354,VALID,0.898047,
2010-08-05, 03:04:04,VALID,1002.69,VALID,0,VALID,95.2008,VALID,0.100563,VALID,25.6292,VALID,336,VALID,0.721875,
2010-08-05, 03:05:04,VALID,1002.68,VALID,0,VALID,93.4309,VALID,0,VALID,25.6467,VALID,323,VALID,0.414453,
2010-08-05, 03:06:04,VALID,1002.68,VALID,0,VALID,91.722,VALID,0,VALID,25.6876,VALID,323,VALID,0,
2010-08-05, 03:07:04,VALID,1002.71,VALID,0,VALID,91.4855,VALID,0,VALID,25.709,VALID,323,VALID,0.230469,
2010-08-05, 03:08:04,VALID,1002.7,VALID,0,VALID,91.3177,VALID,0.100563,VALID,25.6681,VALID,323,VALID,0,
2010-08-05, 03:09:04,VALID,1002.69,VALID,0,VALID,91.6305,VALID,0,VALID,25.6681,VALID,323,VALID,0.175,
2010-08-05, 03:10:04,VALID,1002.71,VALID,0,VALID,91.8594,VALID,0,VALID,25.6506,VALID,323,VALID,0.18125,
2010-08-05, 03:11:04,VALID,1002.72,VALID,0,VALID,91.8136,VALID,0.100563,VALID,25.5902,VALID,323,VALID,0.463672,
2010-08-05, 03:12:04,VALID,1002.72,VALID,0,VALID,93.2325,VALID,0,VALID,25.5104,VALID,323,VALID,0,
2010-08-05, 03:13:04,VALID,1002.75,VALID,0,VALID,94.2548,VALID,0,VALID,25.4734,VALID,1,VALID,0.760938,
2010-08-05, 03:14:04,VALID,1002.73,VALID,0,VALID,104,VALID,0.100563,VALID,25.4539,VALID,30,VALID,0.31875,
2010-08-05, 03:15:04,VALID,1002.72,VALID,0,VALID,104,VALID,0,VALID,25.4539,VALID,26,VALID,0.183594,
2010-08-05, 03:16:04,VALID,1002.69,VALID,0,VALID,104,VALID,0.100563,VALID,25.4539,VALID,358,VALID,0.200391,
2010-08-05, 03:17:04,VALID,1002.72,VALID,0,VALID,104,VALID,0,VALID,25.4539,VALID,19,VALID,0.531641,
2010-08-05, 03:18:04,VALID,1002.69,VALID,0,VALID,104,VALID,0.100563,VALID,25.3935,VALID,19,VALID,0.464063,
2010-08-05, 03:19:04,VALID,1002.71,VALID,0,VALID,104,VALID,0,VALID,25.3565,VALID,19,VALID,0.5375,
2010-08-05, 03:20:04,VALID,1002.71,VALID,0,INVALID,109.505,VALID,0,VALID,25.3565,VALID,13,VALID,0.388281,
2010-08-05, 03:21:04,VALID,1002.74,VALID,0,INVALID,109.658,VALID,0.100563,VALID,25.2981,VALID,13,VALID,0.411719,
2010-08-05, 03:22:04,VALID,1002.72,VALID,0,INVALID,110.214,VALID,0,VALID,25.2592,VALID,12,VALID,0.620703,
2010-08-05, 03:23:05,VALID,1002.74,VALID,0,INVALID,111.344,VALID,0.100563,VALID,25.1794,VALID,9,VALID,0.696875,
2010-08-05, 03:24:04,VALID,1002.76,VALID,0,INVALID,112.526,VALID,0,VALID,25.2202,VALID,39,VALID,0.610156,
2010-08-05, 03:25:05,VALID,1002.75,VALID,0,INVALID,112.801,VALID,0,VALID,25.2611,VALID,59,VALID,0.519922,
2010-08-05, 03:26:05,VALID,1002.74,VALID,0,INVALID,112.724,VALID,0,VALID,25.2806,VALID,20,VALID,0.674219,
2010-08-05, 03:27:05,VALID,1002.71,VALID,0,INVALID,112.549,VALID,0,VALID,25.2806,VALID,20,VALID,0.448438,
2010-08-05, 03:28:05,VALID,1002.74,VALID,0,INVALID,112.701,VALID,0,VALID,25.2592,VALID,2,VALID,0.603906,
2010-08-05, 03:29:05,VALID,1002.71,VALID,0,INVALID,112.77,VALID,0,VALID,25.2397,VALID,2,VALID,0.412891,
2010-08-05, 03:30:05,VALID,1002.73,VALID,0,INVALID,112.961,VALID,0,VALID,25.2981,VALID,3,VALID,1.17578,
2010-08-05, 03:31:05,VALID,1002.73,VALID,0,INVALID,112.991,VALID,0,VALID,25.376,VALID,34,VALID,0.532422,
2010-08-05, 03:32:05,VALID,1002.72,VALID,0,INVALID,112.74,VALID,0,VALID,25.4363,VALID,34,VALID,0.175,
2010-08-05, 03:33:05,VALID,1002.74,VALID,0,INVALID,112.335,VALID,0,VALID,25.4539,VALID,34,VALID,0,
2010-08-05, 03:34:05,VALID,1002.74,VALID,0,INVALID,111.633,VALID,0,VALID,25.4948,VALID,34,VALID,0,
2010-08-05, 03:35:05,VALID,1002.74,VALID,0,INVALID,110.855,VALID,0,VALID,25.4948,VALID,25,VALID,0.494531,
2010-08-05, 03:36:05,VALID,1002.72,VALID,0,INVALID,109.909,VALID,0,VALID,25.4948,VALID,7,VALID,0.516016,
2010-08-05, 03:37:05,VALID,1002.75,VALID,0,INVALID,109.612,VALID,0,VALID,25.4948,VALID,17,VALID,1.22461,
2010-08-05, 03:38:05,VALID,1002.74,VALID,0,INVALID,110.123,VALID,0,VALID,25.4948,VALID,9,VALID,0.762891,
2010-08-05, 03:39:05,VALID,1002.73,VALID,0,INVALID,110.169,VALID,0,VALID,25.5142,VALID,9,VALID,0.659766,
2010-08-05, 03:40:05,VALID,1002.74,VALID,0,INVALID,110.077,VALID,0,VALID,25.5318,VALID,8,VALID,1.28125,
2010-08-05, 03:41:05,VALID,1002.77,VALID,0,VALID,104,VALID,0.100563,VALID,25.5727,VALID,12,VALID,0.804688,
2010-08-05, 03:42:05,VALID,1002.73,VALID,0,VALID,104,VALID,0.100563,VALID,25.5513,VALID,360,VALID,0.713672,